Starlink 11479

operational
NORAD ID: 62270 Int'l Des: 2024-237 Owner: SPXS Country: US Constellation: starlink
LEOCIRCULAR

关于 Starlink 11479

正在加载描述...

实时位置

正在加载3D地球...

即将过境

高度历史

Altitude vs Time

uPlot chart will show altitude changes over time

两行轨道根数

1 62270U 24237D 25304.75465609 .00237948 00000-0 18015-2 0 9991
2 62270 42.9995 113.8345 0001440 266.0390 94.0313 15.70890438 52773
Epoch: Oct 31, 2025 • Age: 26 hours

当前状态

高度 366.8 km
速度 7.69 km/s
星下点 -41.83°S, 24.56°E
发射日期 Dec 8, 2024
运行时间 0.8 years
类型 internet

技术详情

分类 Payload
质量 960.00 kg
干质量 910.00 kg
总质量 960.00 kg
长度 0.30 m
直径 4.10 m
跨度 29.00 m
形状 Box + pan
制造商 SPXS
平台类型 Starlink V2MD
阶段状态 In Orbit
所有者/国家 SPXS/US

大型星座

Loading constellations...